Theta_e
304 302 302 302 304 305 306 307 305 304 305 304 303 302 303 304 305 307 309 311 311 318 322 323 322 315 317 317 316 317 317 316 317 318 319 320 322 322 322 322 322 324 320 321 321 320 321
303 303 303 303 303 305 305 306 306 305 305 304 303 304 304 303 303 304 304 307 310 311 317 322 322 316 316 316 314 315 316 316 317 317 318 320 322 322 322 322 323 322 323 322 323 323 323
303 302 303 303 302 303 304 304 304 304 304 303 304 304 304 304 302 301 302 303 307 311 313 318 320 317 319 316 314 315 315 315 316 316 318 318 321 322 322 322 322 323 324 324 325 326 325
302 302 302 302 301 300 302 303 304 304 303 303 305 304 304 302 301 302 303 303 304 309 312 315 318 317 319 317 315 314 316 316 316 316 317 318 320 322 323 324 325 325 324 324 322 323 325
302 301 301 301 301 300 301 303 303 303 302 303 302 304 304 302 302 302 302 302 304 309 312 315 318 317 319 316 315 315 314 315 315 315 315 318 320 323 325 325 325 326 325 324 323 323 323
300 300 300 300 301 301 301 302 303 303 302 302 302 302 303 303 302 301 300 300 304 311 311 316 317 317 316 317 317 315 315 314 315 315 316 317 322 324 326 327 327 324 325 326 324 323 325
300 299 299 299 300 300 301 302 302 302 302 301 302 301 302 303 301 300 301 306 309 310 311 313 319 319 316 318 315 315 314 315 315 315 317 319 322 325 323 324 325 324 323 324 323 323 325
299 298 299 299 299 300 300 302 301 301 301 301 301 301 301 303 301 300 301 305 307 307 312 311 312 318 318 315 316 316 314 316 316 317 315 318 323 320 321 321 325 326 326 325 323 322 325
298 299 299 298 299 299 300 301 300 301 300 300 301 301 301 301 300 301 302 302 304 306 309 310 312 311 319 314 316 316 316 316 317 318 316 317 318 318 319 321 324 327 326 325 324 324 325
297 298 298 299 299 300 300 300 300 300 299 300 300 300 300 300 300 302 303 304 304 307 308 307 310 314 313 317 318 316 314 315 317 318 317 317 316 316 320 322 323 326 323 323 323 326 328
298 298 299 299 297 298 299 299 298 299 300 300 299 300 299 298 301 302 303 302 300 306 307 304 308 312 314 316 314 318 316 315 318 317 317 318 317 317 317 322 322 323 321 322 323 326 326
299 299 299 299 297 297 297 298 297 298 298 299 299 299 299 299 300 300 301 301 302 308 306 306 310 315 316 317 316 315 318 317 318 319 316 318 318 317 317 317 320 321 322 322 323 325 329
299 299 299 299 299 298 297 297 297 298 298 298 298 299 299 299 299 300 300 302 303 308 305 310 313 314 315 318 317 316 319 320 322 323 322 319 319 317 316 318 318 322 324 326 328 329 330
298 298 299 299 299 299 299 299 297 297 298 298 297 298 299 299 299 299 299 301 302 302 306 311 313 313 314 314 315 317 318 321 320 321 323 324 324 320 317 319 320 320 324 326 328 326 324
298 298 298 299 299 299 298 299 299 298 297 297 297 299 299 300 299 299 301 301 300 300 301 303 309 310 316 315 314 316 317 320 319 321 323 324 323 320 318 318 319 320 323 323 325 322 324
298 298 298 298 299 299 299 298 298 297 296 297 299 299 298 298 300 299 300 300 299 299 299 301 308 309 313 317 317 317 316 316 316 317 319 320 323 320 320 318 319 320 320 326 327 332 329
298 298 298 298 298 299 299 299 299 297 296 297 298 300 299 299 299 300 301 299 299 298 298 300 302 308 311 312 313 319 318 316 316 315 317 320 321 321 319 321 321 321 323 324 326 326 331
299 299 299 298 298 298 299 299 299 299 296 297 298 301 298 298 300 300 300 298 297 297 298 298 299 300 303 304 309 311 315 316 314 317 318 319 322 327 322 320 320 321 322 324 329 332 330
299 298 298 299 298 299 299 298 298 298 297 298 300 300 296 298 300 300 301 299 298 298 297 298 298 300 302 305 308 305 307 310 305 309 317 319 322 327 324 321 321 322 323 323 327 331 332
299 299 298 299 299 299 299 299 297 297 297 298 299 300 299 298 300 300 300 300 299 299 299 298 299 299 299 302 301 303 303 303 304 304 305 308 320 322 327 323 321 324 323 324 328 331 330
300 299 298 298 297 298 298 299 297 297 298 298 298 300 300 299 299 299 300 299 300 300 299 299 300 301 301 303 302 302 301 301 302 303 305 309 322 323 322 320 320 322 324 324 326 326 330
299 299 299 298 297 297 297 298 298 298 298 298 299 301 300 299 299 300 300 300 300 299 299 300 301 301 301 303 303 304 304 304 304 301 302 305 315 322 323 320 320 321 320 321 324 326 326
299 299 299 298 297 297 298 298 298 298 298 298 297 298 300 300 300 301 301 300 300 299 300 300 300 301 302 303 302 303 303 303 305 307 306 306 307 312 321 321 323 323 322 322 322 323 325
298 298 298 298 298 298 298 298 298 298 298 299 298 299 301 301 301 301 300 300 301 300 302 300 300 301 301 301 301 302 302 303 304 304 305 309 309 311 312 316 325 321 319 320 322 321 322
297 297 297 297 297 298 298 298 298 298 298 299 299 298 300 300 300 300 299 299 299 300 300 300 301 301 301 301 304 304 304 305 305 306 306 307 309 312 314 321 323 321 319 320 322 324 322
297 297 297 297 296 296 297 297 298 298 298 299 299 298 299 300 301 299 300 300 302 302 303 302 301 301 301 302 303 303 304 305 307 311 308 308 311 310 312 316 323 321 319 319 320 325 322
296 296 296 296 295 295 295 296 296 296 297 299 299 299 298 299 299 300 301 301 301 301 303 302 302 303 301 304 305 305 304 304 307 307 316 314 312 312 310 313 323 320 320 320 325 326 322
296 296 296 295 295 295 295 296 297 297 298 299 299 298 299 297 299 300 300 301 301 301 303 302 303 303 303 304 305 304 304 305 307 308 311 313 314 317 315 318 321 319 319 325 323 317 322
296 296 295 295 295 295 295 295 295 297 298 299 299 298 298 298 298 299 300 300 300 301 301 302 302 303 303 304 304 305 305 306 309 312 312 315 315 323 316 321 315 315 320 321 314 318 316
Wind_Speed
14 16 20 20 19 20 18 18 16 16 15 15 14 13 11 10 10 10 10 11 14 13 16 14 13 12 5 9 12 3 9 6 6 3 1 11 14 16 17 12 16 18 18 11 14 14 15
15 15 16 16 19 20 18 19 18 15 14 14 12 11 11 11 11 12 12 11 12 15 11 15 15 14 11 21 7 16 17 15 11 7 6 7 7 12 13 16 15 4 17 18 14 14 15
12 14 15 15 19 20 20 21 21 18 15 13 12 10 10 12 12 12 12 12 12 11 16 10 15 20 16 20 5 6 7 12 8 10 9 8 10 10 4 14 15 14 19 18 15 15 16
15 16 17 18 19 23 22 22 21 19 17 14 12 11 10 10 10 10 11 12 11 11 11 12 9 19 8 7 28 24 11 4 3 3 7 9 7 11 15 8 9 12 18 19 18 20 19
15 18 19 21 23 23 22 21 22 19 17 13 12 12 10 9 8 9 12 12 11 9 9 8 8 8 6 6 17 19 25 19 8 7 6 7 8 13 10 16 15 16 17 19 17 15 13
16 18 21 22 22 22 21 21 22 19 16 13 11 11 10 8 7 9 12 11 9 5 7 6 7 4 8 5 7 14 25 22 16 14 9 10 9 13 15 15 20 20 17 18 18 6 14
17 19 20 21 22 22 22 20 20 16 13 12 10 7 8 7 6 9 11 3 4 5 14 13 9 11 5 14 6 16 19 23 17 14 23 15 13 25 31 25 22 22 15 21 18 13 12
19 20 21 21 22 22 21 20 15 13 12 11 10 7 6 5 5 8 8 3 4 7 8 23 24 22 24 15 7 10 18 15 19 27 21 20 26 30 25 24 22 23 23 24 20 16 13
19 19 19 21 21 21 21 19 14 11 11 12 10 7 4 3 6 7 6 8 12 8 6 13 22 28 21 14 7 14 19 15 20 22 29 29 34 24 24 25 24 27 28 24 22 14 14
18 18 18 19 20 19 18 16 12 11 10 9 7 5 4 4 4 3 6 3 8 6 5 12 18 21 29 25 16 23 23 11 12 22 24 27 35 28 25 28 27 28 26 24 21 17 18
18 18 19 20 17 15 14 12 10 11 11 9 6 5 4 5 2 5 1 6 10 5 6 9 26 5 19 29 16 30 30 19 21 15 20 26 22 28 31 29 25 29 24 22 20 20 20
18 18 18 17 16 13 13 12 10 11 13 11 8 7 6 5 8 7 6 8 4 6 11 6 7 18 21 25 31 11 29 29 22 18 17 33 21 22 35 31 23 18 18 13 18 15 18
18 17 15 14 13 11 9 8 9 9 11 13 10 8 8 7 3 6 5 4 6 12 1 6 9 14 25 22 25 31 26 27 18 17 15 30 30 25 20 23 28 24 17 13 13 14 21
19 18 15 13 13 10 9 8 7 8 8 8 7 9 8 9 8 6 2 6 13 5 24 4 6 19 18 23 24 26 25 25 30 26 20 25 23 32 29 34 26 32 28 15 21 20 23
21 19 18 15 12 11 11 9 9 8 7 9 9 8 6 8 11 9 5 9 8 15 11 21 11 7 13 21 15 22 27 29 32 33 26 24 34 22 30 32 26 31 24 34 24 18 11
23 22 20 18 15 13 11 10 10 7 8 8 8 7 10 10 14 13 6 10 8 19 19 11 9 7 4 19 19 18 20 18 33 37 34 29 24 28 23 22 32 30 24 20 15 10 22
24 22 20 20 18 16 14 13 12 10 8 8 5 2 5 15 13 6 11 11 15 18 16 11 17 8 10 13 7 21 16 20 31 27 33 34 25 26 24 27 31 23 26 20 18 16 14
24 23 23 21 19 19 17 16 15 12 9 11 3 4 10 21 7 4 12 6 10 13 12 18 20 21 20 20 14 9 5 19 20 33 30 36 15 26 30 24 29 32 30 29 13 15 20
24 22 22 22 21 19 18 19 18 17 14 8 2 3 8 19 8 11 6 5 16 15 15 11 15 18 16 13 5 9 8 4 19 19 23 26 17 21 20 26 18 25 28 30 28 8 20
22 21 18 18 18 19 17 17 17 17 18 13 3 4 3 5 10 15 14 15 14 13 18 20 21 19 21 20 18 12 19 14 11 20 27 17 19 22 25 26 26 21 30 31 29 19 22
15 15 15 15 15 16 17 17 17 18 18 16 5 5 7 5 11 18 14 7 13 12 14 14 11 19 20 16 13 16 23 29 24 22 11 9 9 26 32 31 29 33 31 36 35 34 29
5 8 11 11 12 13 16 17 16 16 17 15 4 3 5 11 12 19 20 18 21 21 18 14 18 19 18 18 18 17 21 17 19 11 13 5 10 22 25 32 34 35 31 32 37 38 36
8 6 7 8 11 12 14 16 17 17 18 5 6 8 3 9 16 16 17 21 21 22 19 24 22 19 19 25 21 20 18 18 18 18 12 12 6 7 21 31 29 24 30 35 36 34 37
14 10 8 7 8 10 12 14 16 18 22 16 9 7 4 10 14 16 16 19 22 23 23 22 19 20 25 19 19 18 20 22 23 22 15 15 14 7 12 16 20 23 29 30 36 32 33
15 13 11 10 9 7 5 8 12 15 18 23 13 8 5 11 16 20 24 25 24 24 25 25 26 22 14 9 10 11 9 9 16 24 22 18 12 5 5 10 11 18 26 31 31 38 39
12 11 11 10 10 12 9 8 9 11 15 20 24 24 6 8 18 25 22 24 18 16 18 25 23 13 12 6 8 11 10 8 7 5 25 25 24 12 13 12 19 28 21 25 22 25 39
14 12 11 12 14 15 16 17 17 17 18 18 17 26 10 8 15 17 14 15 18 18 14 15 5 12 17 8 11 12 14 10 12 14 7 6 9 17 17 11 13 11 5 15 14 11 16
16 16 15 14 17 18 19 20 20 21 22 20 20 23 22 6 17 23 27 25 20 14 15 10 9 9 7 10 7 7 10 12 12 15 9 8 4 9 12 18 24 6 15 21 14 3 5
20 20 21 20 21 22 22 23 24 22 22 21 19 25 30 11 6 18 36 45 37 31 17 13 11 8 10 8 7 6 8 8 17 13 9 8 7 4 1 3 12 7 8 10 7 8 6
Wind_Direction
292 300 304 301 294 297 293 287 277 278 280 292 299 301 303 302 295 296 294 289 267 271 244 248 244 228 204 221 236 214 207 319 350 53 208 223 230 224 234 235 237 236 249 230 245 246 248
300 308 301 303 297 305 298 295 273 266 272 283 293 302 303 303 302 299 297 299 292 262 269 240 236 210 221 243 246 238 259 272 276 263 274 236 240 245 279 253 236 253 251 251 236 235 236
288 300 304 300 300 297 300 294 286 263 264 273 280 289 296 299 302 305 303 297 295 287 259 263 241 200 227 235 218 209 246 254 248 257 252 240 266 241 253 258 251 262 257 250 230 236 238
294 297 297 299 297 300 294 294 289 264 263 265 269 277 279 300 317 312 305 298 292 285 271 262 245 198 236 252 239 246 237 274 216 223 242 244 228 251 253 272 245 241 240 253 243 232 226
298 299 300 301 298 301 290 292 289 264 257 257 270 270 271 293 317 315 308 298 284 269 284 254 207 189 248 205 220 230 234 230 218 243 246 243 230 227 220 237 247 226 251 233 252 227 233
301 302 299 300 302 302 293 290 286 259 252 250 256 265 261 283 310 323 318 297 283 252 244 237 243 147 241 208 209 228 222 220 222 233 235 227 226 221 222 223 230 232 230 250 246 200 231
307 303 299 301 300 297 290 288 279 256 251 252 258 264 254 261 306 331 343 321 208 209 220 209 187 225 113 216 185 220 201 200 203 214 219 196 215 223 221 221 245 257 253 252 252 250 283
304 301 299 299 298 294 292 289 277 255 247 249 251 264 249 246 298 320 331 276 322 9 283 225 246 225 241 180 179 185 180 183 192 211 208 215 226 230 234 237 231 243 247 249 256 263 283
303 304 304 300 299 292 291 291 278 253 252 259 254 246 229 239 298 302 276 274 320 334 267 251 227 233 209 198 204 185 192 199 198 212 208 214 231 227 234 229 231 231 235 244 253 249 249
309 307 308 307 305 299 294 293 276 241 257 257 246 239 231 230 264 228 243 246 327 304 265 249 218 233 217 218 238 215 203 190 207 218 217 227 236 234 224 230 221 239 232 248 257 254 254
307 306 308 309 312 302 300 291 276 246 232 237 247 233 236 212 183 214 45 311 318 207 246 200 210 198 204 200 216 210 204 216 228 205 198 224 226 227 231 226 224 242 246 246 238 244 257
312 303 303 307 308 303 304 289 276 257 243 230 233 233 215 219 234 241 283 303 287 209 228 227 184 200 186 203 218 216 202 215 220 240 222 241 230 220 229 232 230 237 235 238 237 237 243
316 313 309 302 302 306 306 294 271 261 248 236 235 222 217 212 249 216 227 230 220 231 213 213 195 203 206 199 216 217 191 199 200 189 196 236 238 237 228 232 225 214 211 219 220 216 238
310 309 306 303 302 298 296 296 282 252 235 205 232 234 224 218 196 169 222 205 225 229 245 42 296 210 215 217 213 211 207 204 208 199 206 224 225 216 213 221 211 213 213 219 223 231 242
300 299 298 297 294 290 282 277 267 260 238 225 217 220 211 206 201 195 203 212 232 243 268 252 262 318 226 216 230 207 224 222 205 218 214 222 233 228 217 219 221 220 213 224 248 275 280
292 287 284 284 282 279 277 276 269 256 235 208 189 214 213 195 189 182 211 234 233 236 259 307 285 208 271 224 205 204 199 220 228 218 227 238 249 221 215 220 222 227 214 220 226 218 236
285 281 277 273 271 269 266 263 264 253 232 194 178 215 183 177 161 197 230 224 234 246 258 244 264 284 297 284 280 218 204 218 208 224 221 234 240 251 230 205 211 210 222 213 219 219 235
284 276 270 266 265 263 260 256 251 249 223 171 179 214 163 160 188 208 234 229 262 259 255 253 263 264 267 285 292 276 298 241 207 213 215 224 233 245 235 220 221 221 212 211 214 208 222
285 281 269 263 258 260 258 252 248 240 223 182 205 209 175 183 219 223 220 240 248 253 251 244 247 258 258 273 282 328 348 315 323 353 227 221 220 239 242 246 220 221 217 219 213 225 219
280 270 270 258 257 254 252 249 244 238 221 200 177 196 173 224 235 241 233 234 236 243 252 249 257 266 272 270 264 281 289 289 297 306 317 310 237 214 231 220 222 234 227 220 214 218 224
276 270 270 259 258 251 248 247 244 237 217 190 193 229 196 199 225 224 231 236 228 234 236 241 246 243 253 266 261 254 263 272 277 274 295 315 240 219 240 240 247 221 222 224 225 218 221
289 275 278 263 257 256 248 245 241 231 207 200 192 204 225 249 231 221 233 233 239 246 242 246 249 263 262 264 264 265 265 273 275 262 280 304 299 234 240 243 239 244 240 226 229 228 230
3 315 290 275 261 260 250 246 244 233 207 180 191 237 260 247 237 244 240 233 244 250 251 246 254 261 262 255 275 276 276 279 268 278 262 257 253 305 235 237 244 247 237 240 232 232 231
22 18 356 328 304 286 269 255 246 236 218 214 198 195 218 243 242 244 245 242 244 244 250 251 245 244 252 275 286 285 279 266 258 259 250 254 252 241 266 278 227 236 240 239 241 247 240
28 30 32 29 25 15 335 281 261 251 238 222 214 200 216 249 251 255 251 252 258 259 253 255 251 249 277 281 261 257 241 240 242 239 233 222 236 260 251 257 253 248 225 216 221 240 237
8 11 11 15 2 355 346 325 299 273 255 236 227 218 223 250 235 244 252 248 246 245 252 249 255 244 232 220 229 243 245 254 221 227 209 212 214 215 255 276 243 247 219 210 222 240 241
348 343 337 335 338 332 328 317 296 280 268 252 243 223 226 248 252 251 244 244 244 244 251 255 250 225 215 217 222 231 235 230 239 242 209 189 208 219 229 236 257 233 196 163 185 242 229
335 331 327 321 323 327 323 322 312 296 279 263 253 240 225 246 252 247 244 241 244 236 235 233 218 199 198 220 218 204 235 229 243 237 226 228 236 231 214 219 244 188 163 174 202 195 226
329 326 322 317 314 316 318 320 319 304 290 270 258 250 245 240 265 257 247 244 237 232 231 231 223 187 209 210 217 215 219 216 232 239 200 219 228 279 120 275 341 221 182 211 7 301 251